CAPE
101 41 0 0 0 0 0 0 0 0 0 0 0 0 0 0 0 0 0 0 0 0 0 0 0 0 0 0 0 0 0 0
126 76 1 0 0 0 0 0 0 0 0 0 0 0 0 0 0 0 0 0 0 0 0 0 0 0 0 0 0 0 0 0
112 90 9 0 0 0 0 0 0 0 0 0 0 0 0 0 0 0 0 0 0 0 0 0 0 0 0 0 0 0 0 0
103 62 18 0 0 0 0 0 0 0 0 0 0 0 0 0 0 0 0 0 0 0 0 0 0 0 0 0 0 0 0 0
114 54 25 1 0 0 0 0 0 0 0 0 0 0 0 0 0 0 0 0 0 0 0 0 0 0 0 0 0 0 0 0
291 60 42 28 2 0 0 0 0 0 0 0 0 0 0 0 0 0 0 0 0 0 0 0 0 0 0 0 0 0 0 0
405 128 73 29 2 0 0 0 0 0 0 0 0 0 0 0 0 0 0 0 0 0 0 0 0 0 0 0 0 0 0 0
373 157 73 25 0 0 0 0 0 0 0 0 0 0 0 0 0 0 0 0 0 0 0 0 0 0 0 0 0 0 0 0
216 179 49 14 0 0 0 0 0 0 0 0 0 0 0 1 0 0 0 0 0 0 0 0 0 0 0 0 0 0 0 0
151 110 38 16 0 0 0 0 0 0 0 0 0 0 0 1 0 0 0 0 0 0 0 0 0 0 0 0 0 0 0 0
0 5 0 0 0 0 0 0 0 0 0 0 0 0 0 0 0 0 0 0 0 0 0 0 0 0 0 0 0 0 0 0
0 0 0 0 0 0 0 0 0 0 0 0 0 0 0 0 0 0 0 0 0 0 0 0 0 0 0 0 0 0 0 0
0 0 0 0 0 0 0 0 0 0 0 0 0 0 0 0 0 0 0 0 0 0 0 0 0 0 0 0 0 0 0 0
0 0 0 0 0 0 0 0 0 0 0 0 0 0 0 0 0 0 0 0 0 0 0 0 0 0 0 0 0 0 0 0
0 0 0 0 0 0 0 0 0 0 0 0 0 0 0 0 0 0 0 0 0 0 0 0 0 0 0 0 0 0 0 0
0 0 0 0 0 0 0 0 0 0 0 0 0 0 0 0 0 0 0 0 0 0 0 0 0 0 0 0 0 0 0 0
0 0 0 0 0 0 0 0 0 0 0 0 0 0 0 0 0 0 0 0 0 0 0 0 0 0 0 0 0 0 0 0
0 0 0 0 0 0 0 0 0 0 0 0 0 0 0 0 0 0 0 0 0 0 0 0 0 2 0 0 0 0 0 1
0 0 0 0 0 0 0 0 0 0 0 0 0 0 0 0 0 0 0 0 0 0 0 0 0 0 0 0 0 2 1 2
CIN
-69 -89 -0 -0 -0 -0 -0 -0 -0 -0 -0 -0 -0 -0 -0 -0 -0 -0 -0 -0 -0 -0 -0 -0 -0 -0 -0 -0 -0 -0 -0 -0
-78 -98 -9 -0 -0 -0 -0 -0 -0 -0 -0 -0 -0 -0 -0 -0 -0 -0 -0 -0 -0 -0 -0 -0 -0 -0 -0 -0 -0 -0 -0 -0
-132 -154 -216 -0 -0 -0 -0 -0 -0 -0 -0 -0 -0 -0 -0 -0 -0 -0 -0 -0 -0 -0 -0 -0 -0 -0 -0 -0 -0 -0 -0 -0
-166 -210 -259 -0 -0 -0 -0 -0 -0 -0 -0 -0 -0 -0 -0 -0 -0 -0 -0 -0 -0 -0 -0 -0 -0 -0 -0 -0 -0 -0 -0 -0
-158 -213 -283 -277 -0 -0 -0 -0 -0 -0 -0 -0 -0 -0 -0 -0 -0 -0 -0 -0 -0 -0 -0 -0 -0 -0 -0 -0 -0 -0 -0 -0
-112 -206 -228 -245 -171 -0 -0 -0 -0 -0 -0 -0 -0 -0 -0 -0 -0 -0 -0 -0 -0 -0 -0 -0 -0 -0 -0 -0 -0 -0 -0 -0
-97 -103 -171 -235 -190 -0 -0 -0 -0 -0 -0 -0 -0 -0 -0 -0 -0 -0 -0 -0 -0 -0 -0 -0 -0 -0 -0 -0 -0 -0 -0 -0
-107 -105 -172 -238 -0 -0 -0 -0 -0 -0 -0 -0 -0 -0 -0 -0 -0 -0 -0 -0 -0 -0 -0 -0 -0 -0 -0 -0 -0 -0 -0 -0
-150 -108 -202 -275 -0 -0 -0 -0 -0 -0 -0 -0 -0 -0 -0 -0 -0 -0 -0 -0 -0 -0 -0 -0 -0 -0 -0 -0 -0 -0 -0 -0
-180 -176 -240 -269 -0 -0 -0 -0 -0 -0 -0 -0 -0 -0 -0 -0 -0 -0 -0 -0 -0 -0 -0 -0 -0 -0 -0 -0 -0 -0 -0 -0
-0 -182 -0 -0 -0 -0 -0 -0 -0 -0 -0 -0 -0 -0 -0 -0 -0 -0 -0 -0 -0 -0 -0 -0 -0 -0 -0 -0 -0 -0 -0 -0
-0 -0 -0 -0 -0 -0 -0 -0 -0 -0 -0 -0 -0 -0 -0 -0 -0 -0 -0 -0 -0 -0 -0 -0 -0 -0 -0 -0 -0 -0 -0 -0
-0 -0 -0 -0 -0 -0 -0 -0 -0 -0 -0 -0 -0 -0 -0 -0 -0 -0 -0 -0 -0 -0 -0 -0 -0 -0 -0 -0 -0 -0 -0 -0
-0 -0 -0 -0 -0 -0 -0 -0 -0 -0 -0 -0 -0 -0 -0 -0 -0 -0 -0 -0 -0 -0 -0 -0 -0 -0 -0 -0 -0 -0 -0 -0
-0 -0 -0 -0 -0 -0 -0 -0 -0 -0 -0 -0 -0 -0 -0 -0 -0 -0 -0 -0 -0 -0 -0 -0 -0 -0 -0 -0 -0 -0 -0 -0
-0 -0 -0 -0 -0 -0 -0 -0 -0 -0 -0 -0 -0 -0 -0 -0 -0 -0 -0 -0 -0 -0 -0 -0 -0 -0 -0 -0 -0 -0 -0 -0
-0 -0 -0 -0 -0 -0 -0 -0 -0 -0 -0 -0 -0 -0 -0 -0 -0 -0 -0 -0 -0 -0 -0 -0 -0 -0 -0 -0 -0 -0 -0 -0
-0 -0 -0 -0 -0 -0 -0 -0 -0 -0 -0 -0 -0 -0 -0 -0 -0 -0 -0 -0 -0 -0 -0 -0 -0 -0 -0 -0 -0 -0 -0 -0
-0 -0 -0 -0 -0 -0 -0 -0 -0 -0 -0 -0 -0 -0 -0 -0 -0 -0 -0 -0 -0 -0 -0 -0 -0 -0 -0 -0 -0 -0 -0 -0
Wind_Speed
18 17 14 14 14 13 13 12 14 12 9 8 7 6 6 5 5 6 6 6 6 5 6 5 4 5 6 5 7 6 7 8
17 17 15 15 15 15 14 15 15 11 9 9 8 7 7 5 5 7 6 6 6 5 4 5 5 6 7 7 6 6 6 9
17 18 17 17 17 16 15 16 16 12 9 8 7 7 7 6 5 6 6 6 5 4 4 4 5 5 6 7 8 7 6 7
19 19 19 17 18 19 17 17 17 14 12 9 7 7 7 6 6 6 6 6 5 5 5 5 5 5 5 6 8 9 8 6
19 20 20 20 19 18 18 17 17 15 15 12 13 10 9 7 7 6 6 6 6 6 6 6 5 4 6 6 7 7 8 7
21 22 23 21 19 18 17 18 17 16 15 14 12 10 7 7 7 10 7 6 6 6 6 5 5 4 6 7 7 7 6 7
21 19 18 17 16 18 18 19 18 17 17 15 14 12 10 9 9 8 7 6 6 6 6 5 6 7 6 5 6 7 7 6
18 18 18 18 20 20 18 20 19 18 17 16 15 13 12 11 11 8 9 7 6 6 6 6 7 8 4 5 6 6 7 6
15 17 16 17 19 20 19 20 18 18 17 14 13 13 9 8 9 7 7 6 6 8 8 8 9 6 5 5 4 5 5 6
11 14 14 16 17 18 18 18 18 18 17 14 12 11 10 8 9 9 6 8 8 9 10 10 6 6 6 4 5 5 5 6
6 8 11 11 13 15 18 18 18 17 17 13 11 11 10 9 10 10 11 10 10 10 10 8 6 6 5 5 4 6 6 5
7 7 8 10 11 13 15 17 18 16 15 14 12 11 11 11 11 11 11 11 11 10 8 7 6 6 5 5 5 6 7 7
7 8 9 10 10 11 14 15 15 15 14 14 13 13 13 13 12 12 12 12 10 10 8 7 7 6 6 6 6 6 7 7
8 9 9 10 10 11 12 13 14 15 15 15 15 14 14 14 13 12 12 11 11 8 8 7 7 6 5 5 5 5 6 7
8 9 9 9 10 11 12 13 14 15 15 15 15 14 14 13 13 12 11 10 9 9 8 8 6 5 4 4 5 5 6 5
10 10 10 11 11 12 13 13 14 15 16 16 15 15 14 14 12 11 11 9 9 8 8 7 6 4 6 8 6 6 6 6
12 12 12 13 13 14 14 14 14 15 16 16 16 15 14 13 12 11 10 10 9 8 7 6 5 5 6 5 9 7 7 6
15 14 13 13 14 15 15 16 15 16 16 16 15 14 13 12 11 10 10 9 9 8 7 6 5 7 3 4 7 8 7 7
16 14 14 14 15 15 16 17 16 16 16 15 14 14 13 12 11 10 9 8 8 7 6 6 4 7 3 4 8 9 6 7
Wind_Direction
181 178 177 174 164 167 167 168 163 161 156 154 149 150 134 140 128 111 129 111 107 100 90 82 59 57 50 38 20 25 16 359
178 178 176 176 166 172 171 166 166 165 167 168 162 160 150 141 129 131 132 118 114 105 104 96 70 58 46 29 8 18 15 2
179 179 177 184 174 176 173 173 172 179 174 166 167 153 155 144 137 138 127 131 122 124 102 85 50 74 49 35 22 355 6 28
180 184 185 185 181 179 178 176 176 181 172 160 160 147 149 159 158 151 143 144 137 115 89 68 59 31 43 22 11 15 348 10
185 184 187 192 187 179 179 177 178 181 179 176 176 178 178 175 166 150 151 151 138 115 93 82 61 48 29 25 26 3 357 359
192 188 188 190 180 180 179 176 178 179 186 189 185 196 183 159 160 154 156 146 136 117 113 102 76 53 53 43 34 27 19 356
195 186 181 184 176 181 181 178 180 180 187 194 195 188 177 170 167 169 167 155 143 134 127 101 76 75 68 52 47 35 15 6
194 180 182 182 180 184 182 183 180 180 187 191 193 190 187 181 173 178 165 161 155 145 134 105 88 88 85 61 42 32 24 7
194 184 184 185 184 187 185 184 180 180 184 188 192 192 192 191 187 162 179 155 140 133 111 103 99 109 84 52 44 19 20 3
191 185 188 186 185 188 185 186 183 180 182 183 181 183 190 180 158 160 137 131 131 128 109 107 118 97 68 47 42 16 3 2
172 183 180 184 183 183 188 186 187 177 177 174 174 178 171 150 144 136 138 132 130 119 118 124 117 95 70 32 25 30 360 2
134 153 167 175 174 174 181 186 179 173 168 164 159 153 142 139 136 134 138 128 120 124 127 114 106 89 64 48 30 17 354 353
128 143 145 146 154 161 171 178 169 161 159 149 143 139 136 134 134 132 128 124 120 117 128 118 104 88 66 42 18 3 354 355
136 138 137 137 146 153 153 154 155 157 150 141 138 139 137 132 128 126 123 121 123 144 119 112 100 85 66 37 13 2 359 349
144 140 138 139 142 140 147 148 153 151 146 141 138 136 133 127 123 124 122 130 128 117 113 107 107 90 60 17 5 357 347 348
167 154 146 145 143 139 143 144 148 147 141 137 132 129 126 123 121 125 127 129 121 121 122 119 112 94 37 0 350 343 343 330
170 159 155 154 148 145 144 144 143 142 138 133 132 129 125 123 128 129 130 129 129 132 130 125 121 86 78 32 344 328 336 323
172 166 162 157 152 148 147 143 142 140 136 133 132 130 129 133 135 137 136 137 138 135 132 131 112 99 103 16 341 303 322 331
172 164 159 155 150 149 142 144 142 140 137 134 134 137 141 143 142 139 138 142 143 143 134 127 122 99 87 356 318 286 312 322